Weather History for PAGL - March, 2013

Change the Weather History Date:

Sunday, March 17, 2013

  Actual Average Record
Temperature  
Mean Temperature 16 °F -  
Max Temperature 26 °F - - ()
Min Temperature 6 °F - - ()
Degree Days  
Heating Degree Days 49    
Moisture  
Dew Point 10 °F    
Average Humidity 74    
Maximum Humidity 100    
Minimum Humidity 48    
Precipitation  
Precipitation 0.00 in - - ()
Sea Level Pressure  
Sea Level Pressure 30.26 in    
Wind  
Wind Speed 8 mph (East)    
Max Wind Speed 21 mph    
Max Gust Speed 23 mph    
Visibility 10 miles    
Events      
T = Trace of Precipitation, MM = Missing Value Source: NWS Daily Summary

Daily Weather History Graph

Daily Weather History Graph

Search for Another Location

Airport or City:

Trip Planner

Search our weather history database for the weather conditions in past years. The results will help you decide how hot, cold, wet, or windy it might be!

Date:

Astronomy

Mar. 17, 2013 Rise Set
Actual Time 9:01 AM AKDT 9:00 PM AKDT
Civil Twilight 8:13 AM AKDT 9:48 PM AKDT
Nautical Twilight 7:15 AM AKDT 10:47 PM AKDT
Astronomical Twilight 6:09 AM AKDT 11:54 PM AKDT
Moon 10:13 AM AKDT (3/17) 4:26 AM AKDT (3/17)
Length of Visible Light 13h 35m
Length of Day
11h 58m
Waxing Crescent, 33% of the Moon is Illuminated
Mar 17
Waxing Crescent
Mar 19
First Quarter
Mar 27
Full
Apr 2
Last Quarter
Apr 10
New

Hourly Weather History & Observations

Time (AKDT) Temp. Windchill Dew Point Humidity Pressure Visibility Wind Dir Wind Speed Gust Speed Precip Events Conditions
12:16 AM 6.8 °F -5.9 °F 6.8 °F 100% 30.13 in 10.0 mi South 8.1 mph - N/A   Mostly Cloudy
12:36 AM 6.8 °F -5.9 °F 5.0 °F 92% 30.13 in 10.0 mi SSE 8.1 mph - N/A   Scattered Clouds
12:56 AM 6.8 °F -5.9 °F -7.6 °F 52% 30.14 in 10.0 mi SSE 8.1 mph - N/A   Scattered Clouds
1:16 AM 8.6 °F -2.6 °F -7.6 °F 48% 30.15 in 10.0 mi SSE 6.9 mph - N/A   Partly Cloudy
1:36 AM 8.6 °F -4.7 °F -4.0 °F 57% 30.16 in 10.0 mi SE 9.2 mph - N/A   Scattered Clouds
1:56 AM 10.4 °F 0.8 °F - N/A% 30.16 in 10.0 mi SSE 5.8 mph - N/A   Mostly Cloudy
2:16 AM 10.4 °F 0.8 °F - N/A% 30.17 in 10.0 mi SE 5.8 mph - N/A   Mostly Cloudy
2:36 AM 12.2 °F 2.9 °F - N/A% 30.17 in 10.0 mi SE 5.8 mph - N/A   Overcast
2:56 AM 12.2 °F 6.1 °F 12.2 °F 100% 30.18 in 10.0 mi SSE 3.5 mph - N/A   Mostly Cloudy
3:16 AM 12.2 °F 6.1 °F 12.2 °F 100% 30.18 in 10.0 mi East 3.5 mph - N/A   Overcast
3:36 AM 12.2 °F 4.3 °F 6.8 °F 79% 30.19 in 10.0 mi ENE 4.6 mph - N/A   Overcast
3:56 AM 15.8 °F 7.2 °F 3.2 °F 58% 30.19 in 10.0 mi SSE 5.8 mph - N/A   Overcast
4:16 AM 14.0 °F 8.2 °F 8.6 °F 79% 30.20 in 10.0 mi South 3.5 mph - N/A   Overcast
4:36 AM 15.8 °F 7.2 °F 14.0 °F 93% 30.21 in 10.0 mi South 5.8 mph - N/A   Overcast
4:56 AM 17.6 °F 12.3 °F 17.6 °F 100% 30.22 in 10.0 mi SW 3.5 mph - N/A   Overcast
5:16 AM 15.8 °F 8.6 °F 14.0 °F 93% 30.22 in 10.0 mi NW 4.6 mph - N/A   Overcast
5:36 AM 12.2 °F 1.7 °F 12.2 °F 100% 30.22 in 10.0 mi NW 6.9 mph - N/A   Overcast
5:56 AM 10.4 °F -0.4 °F 3.2 °F 73% 30.23 in 10.0 mi WNW 6.9 mph - N/A   Overcast
6:16 AM 8.6 °F -2.6 °F 3.2 °F 79% 30.24 in 10.0 mi WNW 6.9 mph - N/A   Overcast
6:36 AM 8.6 °F -4.7 °F 3.2 °F 79% 30.23 in 10.0 mi WNW 9.2 mph - N/A   Overcast
6:56 AM 8.6 °F -3.7 °F 3.2 °F 79% 30.23 in 10.0 mi WNW 8.1 mph - N/A   Overcast
7:16 AM 8.6 °F -3.7 °F 3.2 °F 79% 30.23 in 10.0 mi WNW 8.1 mph - N/A   Overcast
7:36 AM 10.4 °F -2.4 °F 5.0 °F 79% 30.24 in 10.0 mi WNW 9.2 mph - N/A   Overcast
7:56 AM 10.4 °F -1.5 °F 5.0 °F 79% 30.24 in 10.0 mi WNW 8.1 mph - N/A   Overcast
8:16 AM 10.4 °F 0.8 °F 3.2 °F 73% 30.24 in 10.0 mi WNW 5.8 mph - N/A   Overcast
8:36 AM 10.4 °F -1.5 °F 1.4 °F 67% 30.25 in 10.0 mi West 8.1 mph - N/A   Overcast
8:56 AM 12.2 °F 4.3 °F -2.2 °F 53% 30.25 in 10.0 mi WNW 4.6 mph - N/A   Overcast
9:16 AM 12.2 °F - -2.2 °F 53% 30.25 in 10.0 mi Calm Calm - N/A   Overcast
9:36 AM 15.8 °F 10.2 °F 8.6 °F 73% 30.25 in 10.0 mi East 3.5 mph - N/A   Overcast
10:16 AM 21.2 °F 9.5 °F - N/A% 30.25 in 10.0 mi SE 11.5 mph - N/A   Mostly Cloudy
10:36 AM 19.4 °F 8.6 °F - N/A% 30.26 in 10.0 mi SE 9.2 mph - N/A   Partly Cloudy
10:56 AM 19.4 °F 7.9 °F - N/A% 30.27 in 10.0 mi SE 10.4 mph - N/A   Mostly Cloudy
11:16 AM 21.2 °F 8.3 °F - N/A% 30.27 in 10.0 mi ESE 13.8 mph - N/A   Mostly Cloudy
11:36 AM 23.0 °F 12.4 °F - N/A% 30.27 in 10.0 mi SE 10.4 mph - N/A   Partly Cloudy
11:56 AM 21.2 °F 8.9 °F - N/A% 30.28 in 10.0 mi SE 12.7 mph - N/A   Clear
12:16 PM 23.0 °F 11.7 °F 23.0 °F 100% 30.28 in 10.0 mi SE 11.5 mph - N/A   Clear
12:36 PM 21.2 °F 9.5 °F - N/A% 30.29 in 10.0 mi ESE 11.5 mph - N/A   Clear
12:56 PM 24.8 °F 11.5 °F 24.8 °F 100% 30.29 in 10.0 mi East 17.3 mph - N/A   Clear
1:16 PM 24.8 °F 10.3 °F 19.4 °F 80% 30.29 in 10.0 mi East 20.7 mph - N/A   Clear
1:36 PM 24.8 °F 12.4 °F 8.6 °F 50% 30.29 in 10.0 mi East 15.0 mph - N/A   Clear
1:56 PM 24.8 °F 11.9 °F 10.4 °F 54% 30.29 in 10.0 mi East 16.1 mph 23.0 mph N/A   Clear
2:16 PM 24.8 °F 11.9 °F 15.8 °F 69% 30.30 in 10.0 mi East 16.1 mph 20.7 mph N/A   Clear
2:36 PM 24.8 °F 12.9 °F 17.6 °F 74% 30.30 in 10.0 mi East 13.8 mph - N/A   Clear
2:56 PM 26.6 °F 15.2 °F 21.2 °F 80% 30.30 in 10.0 mi East 13.8 mph - N/A   Clear
3:16 PM 26.6 °F 14.3 °F 24.8 °F 93% 30.30 in 10.0 mi East 16.1 mph - N/A   Clear
3:36 PM 26.6 °F 15.2 °F 24.8 °F 93% 30.30 in 10.0 mi East 13.8 mph - N/A   Clear
3:56 PM 26.6 °F 14.7 °F 19.4 °F 74% 30.30 in 10.0 mi East 15.0 mph - N/A   Clear
4:16 PM 26.6 °F 15.7 °F 15.8 °F 64% 30.31 in 10.0 mi ESE 12.7 mph - N/A   Clear
4:36 PM 26.6 °F 16.2 °F 12.2 °F 55% 30.30 in 10.0 mi East 11.5 mph 16.1 mph N/A   Clear
4:56 PM 26.6 °F 19.1 °F 10.4 °F 51% 30.30 in 10.0 mi ESE 6.9 mph - N/A   Clear
5:16 PM 24.8 °F 16.9 °F 12.2 °F 59% 30.30 in 10.0 mi East 6.9 mph - N/A   Clear
5:36 PM 26.6 °F 20.0 °F 17.6 °F 69% 30.30 in 10.0 mi East 5.8 mph - N/A   Clear
5:56 PM 26.6 °F 21.2 °F 23.0 °F 86% 30.31 in 10.0 mi ENE 4.6 mph - N/A   Clear
6:16 PM 26.6 °F - 15.8 °F 64% 30.31 in 10.0 mi Calm Calm - N/A   Clear
6:36 PM 26.6 °F 22.6 °F 12.2 °F 55% 30.31 in 10.0 mi North 3.5 mph - N/A   Clear
6:56 PM 24.8 °F 16.9 °F 15.8 °F 69% 30.31 in 10.0 mi NW 6.9 mph - N/A   Clear
7:16 PM 23.0 °F 15.8 °F 17.6 °F 80% 30.31 in 10.0 mi NNW 5.8 mph - N/A   Clear
7:36 PM 23.0 °F 15.8 °F 15.8 °F 74% 30.31 in 10.0 mi North 5.8 mph - N/A   Clear
7:56 PM 24.8 °F 20.5 °F 15.8 °F 69% 30.31 in 10.0 mi North 3.5 mph - N/A   Clear
8:16 PM 19.4 °F 11.5 °F 15.8 °F 86% 30.32 in 10.0 mi NNW 5.8 mph - N/A   Clear
8:36 PM 21.2 °F 14.9 °F 15.8 °F 80% 30.32 in 10.0 mi NNW 4.6 mph - N/A   Clear
8:56 PM 21.2 °F 12.6 °F 12.2 °F 68% 30.33 in 10.0 mi North 6.9 mph - N/A   Clear
9:16 PM 19.4 °F 8.6 °F 12.2 °F 74% 30.33 in 10.0 mi NNE 9.2 mph - N/A   Clear
9:36 PM 19.4 °F 11.5 °F 10.4 °F 68% 30.33 in 10.0 mi WNW 5.8 mph - N/A   Clear
9:56 PM 19.4 °F 12.8 °F 12.2 °F 74% 30.34 in 10.0 mi NW 4.6 mph - N/A   Clear
10:16 PM 15.8 °F 7.2 °F 8.6 °F 73% 30.33 in 10.0 mi NW 5.8 mph - N/A   Clear
10:36 PM 12.2 °F 0.7 °F 3.2 °F 67% 30.33 in 10.0 mi WNW 8.1 mph - N/A   Clear
10:56 PM 12.2 °F -0.2 °F 3.2 °F 67% 30.34 in 10.0 mi NW 9.2 mph - N/A   Clear
11:16 PM 12.2 °F -1.0 °F 1.4 °F 62% 30.34 in 10.0 mi WNW 10.4 mph - N/A   Clear
11:36 PM 14.0 °F 2.0 °F 6.8 °F 73% 30.34 in 10.0 mi WNW 9.2 mph - N/A   Clear
11:56 PM 10.4 °F -1.5 °F 1.4 °F 67% 30.35 in 10.0 mi NW 8.1 mph - N/A   Clear